Location: Bauerbach
(50.4985°N, 10.3912°E)
Time: 15:42:31
(UTC+00:00)

BREEZE-M DEB (TANK) - Pass Details

Date: 13 January 2026
Orbit: 313 x 11318 km, 49.7° (Epoch: 9 February)

Event Time Altitude Azimuth Distance (km) Brightness Sun altitude
Exits shadow 06:13:19 13° 269° (W) 1,075 4.3 -9.4°
Maximum altitude 06:15:11 44° 197° (SSW) 456 3.0 -9.1°
Drops below altitude 10° 06:17:43 10° 122° (ESE) 1,433 7.1 -8.8°
Sets 06:20:19 0° 115° (ESE) 2,747 9.5 -8.4°
